Hurricane Symbol View the latest observations near Atlantic Tropical Storm Alberto.

Station BUFN6 - 9063020 - Buffalo, NY Image indicating link to RSS feed of recent meteorological observations for station BUFN6


Conditions at BUFN6 as of
(2:48 pm EDT)
1848 GMT on 06/19/2024:
     

Click on the graph icon in the table below to see a time series plot of the last five days of that observation.

5-day plot - Wind Direction Wind Direction (WDIR): SW ( 230 deg true )
5-day plot - Wind Speed Wind Speed (WSPD): 1.9 kts
5-day plot - Wind Gust Wind Gust (GST): 2.9 kts
5-day plot - Atmospheric Pressure Atmospheric Pressure (PRES):30.24 in
5-day plot - Air Temperature Air Temperature (ATMP): 79.9 °F
5-day plot - Water Temperature Water Temperature (WTMP): 72.3 °F
5-day plot - Dew Point Dew Point (DEWP): 71.6 °F
5-day plot - Heat Index Heat Index (HEAT): 84.2 °F
5-day plot - Wind Speed at 10 Meters Wind Speed at 10 meters (WSPD10M): 1.9 kts
5-day plot - Wind Speed at 20 Meters Wind Speed at 20 meters (WSPD20M): 1.9 kts
5-day plot -  Wind Speed, Wind Gust and Atmospheric Pressure Combined plot of Wind Speed, Gust, and Air Pressure
NOS Water Level Observation Network Water Level
Previous observations
TIME
(EDT)
5-day plot - Wind Direction
WDIR
 
5-day plot - Wind Speed
WSPD
kts
5-day plot - Wind Gust
GST
kts
5-day plot - Wave Height
WVHT
ft
5-day plot - Dominant Wave Period
DPD
sec
5-day plot - Average Wave Period
APD
sec
5-day plot - Mean Wave Direction
MWD
 
5-day plot - Atmospheric Pressure
PRES
in
5-day plot - Pressure Tendency
PTDY
in
5-day plot - Air Temperature
ATMP
°F
5-day plot - Water Temperature
WTMP
°F
5-day plot - Dew Point
DEWP
°F
5-day plot - Salinity
SAL
psu
5-day plot - Visibility
VIS
nmi
5-day plot - Tide (above MLLW)
TIDE
ft
2024-06-19 02:42 pm SW 1.9 4.1----30.24- 79.7 72.3 71.6---
2024-06-19 02:36 pm SW 2.9 4.1----30.24- 79.9 72.3 70.9---
2024-06-19 02:30 pmWSW 1.0 1.9----30.24- 79.5 72.1 70.7---
2024-06-19 02:24 pmWSW 1.0 1.9----30.24- 81.0 72.1 70.7---
2024-06-19 02:18 pm- 0.0 1.9----30.24- 79.7 72.1 70.7---
2024-06-19 02:12 pmWSW 1.0 1.0----30.25- 77.0 72.1 71.2---
2024-06-19 02:06 pmWSW 1.0 1.9----30.25- 76.5 72.3 71.4---
2024-06-19 02:00 pmWSW 1.9 2.9----30.25+0.00 76.5 72.3 71.2---
2024-06-19 01:54 pmWSW 1.9 2.9----30.25- 78.3 72.3 71.1---
2024-06-19 01:48 pm S 1.9 4.1----30.24- 77.9 72.1 70.7---
2024-06-19 01:42 pm S 4.1 5.1----30.24- 79.9 72.0 70.5---
2024-06-19 01:36 pmSSE 4.1 5.1----30.24- 80.1 72.0 71.2---
2024-06-19 01:30 pm S 2.9 4.1----30.24- 78.1 72.0 71.2---
2024-06-19 01:24 pm S 1.9 2.9----30.25- 77.4 72.1 70.3---
2024-06-19 01:18 pm S 2.9 4.1----30.25- 77.9 72.1 70.3---
2024-06-19 01:12 pmSSE 2.9 4.1----30.25- 78.4 72.0 70.7---
2024-06-19 01:06 pmSSE 4.1 4.1----30.25- 78.3 72.0 70.5---
2024-06-19 01:00 pmSSE 1.9 2.9----30.25+0.00 78.1 72.1 70.5---
2024-06-19 12:54 pm SW 1.9 2.9----30.26- 78.6 72.1 70.5---
2024-06-19 12:48 pm- 0.0 1.9----30.26- 78.3 72.1 70.2---
2024-06-19 12:42 pm W 1.9 1.9----30.26- 79.5 72.0 70.2---
2024-06-19 12:36 pm- 0.0 0.0----30.26- 79.3 71.8 70.3---
2024-06-19 12:30 pm- 0.0 1.9----30.26- 79.2 71.8 70.2---
2024-06-19 12:24 pm W 1.0 2.9----30.26- 79.0 71.8 70.0---
2024-06-19 12:18 pm W 1.9 2.9----30.26- 78.6 72.0 70.0---
2024-06-19 12:12 pmWNW 1.0 1.9----30.26- 79.2 72.0 70.0---
2024-06-19 12:06 pm- 0.0 1.0----30.26- 78.6 72.1 70.0---
2024-06-19 12:00 pm- 0.0 1.9----30.26+0.01 77.9 72.1 70.0---
2024-06-19 11:54 am- 0.0 2.9----30.26- 76.6 72.3 70.0---
2024-06-19 11:48 am- 0.0 2.9----30.26- 75.6 72.3 70.2---
2024-06-19 11:42 am W 1.9 2.9----30.26- 75.9 71.8 70.3---
2024-06-19 11:36 am W 2.9 5.1----30.26- 76.1 71.4 70.2---
2024-06-19 11:30 amWSW 2.9 6.0----30.26- 75.9 71.2 70.2---
2024-06-19 11:24 amWSW 5.1 6.0----30.26- 75.6 71.2 69.8---
2024-06-19 11:18 amWSW 5.1 5.1----30.26- 75.4 71.2 70.0---
2024-06-19 11:12 amWSW 5.1 6.0----30.26- 75.2 71.2 69.8---
2024-06-19 11:06 amWSW 2.9 5.1----30.25- 75.4 71.2 70.0---
2024-06-19 11:00 amWSW 2.9 4.1----30.25+0.02 75.9 71.2 69.6---
2024-06-19 10:54 amWSW 2.9 4.1----30.25- 75.9 71.6 69.8---
2024-06-19 10:48 amWSW 1.0 4.1----30.25- 76.1 71.8 69.6---
2024-06-19 10:42 amWSW 4.1 7.0----30.25- 75.4 72.0 69.4---
2024-06-19 10:36 amWSW 5.1 7.0----30.25- 75.6 71.8 69.1---
2024-06-19 10:30 amWSW 1.9 2.9----30.25- 76.6 71.8 69.6---
2024-06-19 10:24 amWSW 1.0 1.9----30.25- 77.0 71.8 69.4---
2024-06-19 10:18 am SW 1.9 2.9----30.25- 77.0 71.8 69.3---
2024-06-19 10:12 am- 0.0 2.9----30.25- 77.0 71.8 69.4---
2024-06-19 10:06 am SW 1.9 2.9----30.25- 76.8 72.0 68.9---
2024-06-19 10:00 am SW 1.9 2.9----30.25+0.03 76.3 72.0 69.1---
2024-06-19 09:54 am S 1.0 1.9----30.25- 76.3 72.0 68.9---
2024-06-19 09:48 am S 1.0 2.9----30.25- 75.6 72.0 69.1---
2024-06-19 09:42 am- 0.0 1.0----30.25- 76.3 72.0 68.9---
2024-06-19 09:36 am W 1.0 1.9----30.25- 76.6 72.0 68.7---
2024-06-19 09:30 am W 1.0 1.9----30.25- 77.4 72.0 68.9---
2024-06-19 09:24 am- 0.0 1.0----30.25- 76.5 71.8 69.1---
2024-06-19 09:18 am- 0.0 1.0----30.25- 75.4 71.8 69.1---
2024-06-19 09:12 am SW 1.0 1.9----30.25- 75.4 71.8 69.1---
2024-06-19 09:06 am- 0.0 1.0----30.25- 74.5 71.8 69.1---
2024-06-19 09:00 am- 0.0 1.0----30.25+0.05 74.8 71.8 69.3---
2024-06-19 08:54 am- 0.0 1.9----30.25- 74.5 71.8 69.1---
2024-06-19 08:48 am SW 1.9 1.9----30.24- 74.1 71.8 69.1---
2024-06-19 08:42 am SW 1.0 1.9----30.24- 73.9 71.8 69.1---
2024-06-19 08:36 am SW 1.0 1.9----30.24- 73.8 71.8 68.9---
2024-06-19 08:30 amWSW 1.0 1.9----30.24- 73.6 71.8 69.1---
2024-06-19 08:24 am SW 1.9 2.9----30.24- 73.6 71.6 68.9---
2024-06-19 08:18 am SW 1.0 1.9----30.24- 73.4 71.8 68.9---
2024-06-19 08:12 am SW 1.9 2.9----30.24- 73.6 71.6 69.1---
2024-06-19 08:06 am SW 1.9 2.9----30.24- 73.9 71.6 68.9---
2024-06-19 08:00 am SW 2.9 4.1----30.24+0.04 74.1 71.8 69.1---
2024-06-19 07:54 am SW 1.9 2.9----30.24- 74.3 71.8 69.1---
2024-06-19 07:48 amSSW 1.9 2.9----30.23-- 71.8----
2024-06-19 07:42 am- 0.0 1.9----30.23-- 71.8----
2024-06-19 07:36 am SW 1.0 1.9----30.23-- 71.8----
2024-06-19 07:30 amWSW 1.0 1.9----30.23- 74.8 71.8 69.1---
2024-06-19 07:24 am SW 1.0 2.9----30.23- 74.5 71.6 69.1---
2024-06-19 07:18 am SW 1.9 4.1----30.22- 74.1 71.6 69.1---
2024-06-19 07:12 amWSW 2.9 4.1----30.22- 73.8 71.6 68.9---
2024-06-19 07:06 amWSW 2.9 4.1----30.22- 73.6 71.2 69.3---
2024-06-19 07:00 amWSW 1.9 2.9----30.22+0.04 73.6 71.2 69.3---
2024-06-19 06:54 amWSW 1.0 1.9----30.22- 73.6 71.2 69.3---
2024-06-19 06:48 amWSW 1.9 2.9----30.22- 73.4 71.2 69.3---
2024-06-19 06:42 am SW 1.9 2.9----30.22- 73.6 71.4 69.4---
2024-06-19 06:36 am SW 2.9 2.9----30.21- 73.9 71.8 69.4---
2024-06-19 06:30 am S 2.9 4.1----30.21- 74.7 71.8 69.4---
2024-06-19 06:24 am S 4.1 5.1----30.21- 75.0 71.8 69.4---
2024-06-19 06:18 am S 4.1 5.1----30.20- 75.2 72.0 69.4---
2024-06-19 06:12 am S 4.1 5.1----30.21- 75.2 72.0 69.4---
2024-06-19 06:06 am S 4.1 5.1----30.20- 75.2 72.0 69.4---
2024-06-19 06:00 am S 5.1 5.1----30.20+0.03 75.6 72.1 69.4---
2024-06-19 05:54 am S 4.1 5.1----30.20- 75.7 72.1 69.3---
2024-06-19 05:48 amSSW 4.1 4.1----30.20- 76.1 72.0 69.3---
2024-06-19 05:42 am SW 2.9 4.1----30.20- 76.3 72.0 69.3---
2024-06-19 05:36 am W 4.1 5.1----30.20- 75.7 72.1 69.3---
2024-06-19 05:30 am W 2.9 2.9----30.19- 75.0 72.0 68.9---
2024-06-19 05:24 amWNW 1.9 2.9----30.19- 75.0 72.0 68.5---
2024-06-19 05:18 am NW 2.9 2.9----30.19- 74.8 71.8 67.6---
2024-06-19 05:12 am NW 1.9 1.9----30.19- 74.8 71.8 67.8---
2024-06-19 05:06 am- 0.0 1.9----30.19- 75.6 71.8 68.7---
2024-06-19 05:00 amWSW 1.0 1.9----30.19+0.03 75.7 71.8 68.7---
2024-06-19 04:54 am- 0.0 0.0----30.19- 75.7 71.8 68.5---
2024-06-19 04:48 am- 0.0 1.9----30.19- 75.4 71.8 68.0---
2024-06-19 04:42 am- 0.0 1.0----30.18- 75.0 71.8 67.8---
2024-06-19 04:36 am- 0.0 1.0----30.18- 74.5 71.8 67.1---
2024-06-19 04:30 am- 0.0 1.0----30.18- 74.5 71.8 67.3---
2024-06-19 04:24 am- 0.0 0.0----30.18- 74.7 71.8 67.1---
2024-06-19 04:18 am- 0.0 0.0----30.18- 74.8 71.8 67.3---
2024-06-19 04:12 am- 0.0 0.0----30.18- 74.8 72.0 67.3---
2024-06-19 04:06 am- 0.0 1.0----30.18- 75.4 72.0 67.3---
2024-06-19 04:00 amSSE 1.0 1.9----30.18+0.02 76.3 72.0 67.1---
2024-06-19 03:54 amSSE 1.0 1.9----30.17- 76.5 72.0 67.3---
2024-06-19 03:48 amSSE 1.9 1.9----30.17- 76.6 72.0 67.1---
2024-06-19 03:42 am S 1.9 2.9----30.17- 76.8 71.8 67.1---
2024-06-19 03:36 amSSE 1.9 4.1----30.17- 77.0 71.8 67.1---
2024-06-19 03:30 amSSE 2.9 4.1----30.17- 76.8 71.8 67.1---
2024-06-19 03:24 am SE 2.9 4.1----30.17- 76.8 71.8 67.5---
2024-06-19 03:18 am SE 2.9 4.1----30.17- 77.0 71.8 66.6---
2024-06-19 03:12 amSSE 2.9 4.1----30.17- 77.2 71.8 66.4---
2024-06-19 03:06 amSSE 2.9 4.1----30.17- 77.2 71.8 66.4---
2024-06-19 03:00 amSSE 2.9 5.1----30.17+0.01 77.2 72.0 66.6---
2024-06-19 02:54 amSSE 4.1 5.1----30.16- 77.4 72.0 66.6---
2024-06-19 02:48 amSSE 4.1 5.1----30.16- 77.5 72.0 66.4---
2024-06-19 02:42 amSSE 4.1 5.1----30.16- 77.7 72.0 66.2---
2024-06-19 02:36 am SE 2.9 4.1----30.16- 77.4 72.0 66.2---
2024-06-19 02:30 amSSE 1.9 4.1----30.16- 77.2 72.1 66.9---
2024-06-19 02:24 am SE 2.9 4.1----30.16- 77.2 72.0 66.6---
2024-06-19 02:18 am SE 1.9 4.1----30.16- 77.4 72.0 66.9---
2024-06-19 02:12 am SE 2.9 4.1----30.16- 77.5 72.0 66.7---
2024-06-19 02:06 amESE 2.9 4.1----30.16- 77.7 72.0 67.1---
2024-06-19 02:00 am SE 4.1 5.1----30.16+0.00 77.7 72.1 67.3---
2024-06-19 01:54 am SE 4.1 6.0----30.16- 77.7 72.0 67.3---
2024-06-19 01:48 amESE 4.1 5.1----30.16- 77.5 71.8 67.6---
2024-06-19 01:42 am SE 4.1 5.1----30.16- 77.7 71.8 68.0---
2024-06-19 01:36 am SE 4.1 5.1----30.16- 77.9 71.8 68.0---
2024-06-19 01:30 amESE 4.1 6.0----30.16-- 71.6----
2024-06-19 01:24 am SE 4.1 6.0----30.15-- 71.6----
2024-06-19 01:18 amESE 2.9 6.0----30.15- 78.3 71.6 69.1---
2024-06-19 01:12 amESE 4.1 5.1----30.15- 78.4 71.6 69.6---
2024-06-19 01:06 am E 4.1 5.1----30.15- 78.6 71.6 69.8---
2024-06-19 01:00 am E 2.9 5.1----30.16-0.01 78.8 71.6 69.6---
2024-06-19 12:54 am E 4.1 6.0----30.15- 78.8 71.6 69.8---
2024-06-19 12:48 am E 4.1 5.1----30.16- 79.2 71.6 69.4---
2024-06-19 12:42 amESE 2.9 5.1----30.16- 79.0 71.8 69.4---
2024-06-19 12:36 amESE 2.9 4.1----30.16- 79.0 72.0 69.8---
2024-06-19 12:30 am E 2.9 5.1----30.16- 78.8 72.0 70.5---
2024-06-19 12:24 am E 4.1 6.0----30.16- 78.8 72.0 70.7---
2024-06-19 12:18 am E 2.9 5.1----30.16- 78.8 72.0 70.5---
2024-06-19 12:12 am E 4.1 4.1----30.16- 78.8 71.8 70.7---
2024-06-19 12:06 am E 2.9 6.0----30.16- 78.8 71.8 70.7---
2024-06-19 12:00 am E 4.1 5.1----30.16+0.01 79.0 71.8 70.5---
2024-06-18 11:54 pm E 5.1 6.0----30.16- 79.2 71.6 70.5---
2024-06-18 11:48 pm E 1.9 2.9----30.16- 78.3 71.4 70.5---
2024-06-18 11:42 pm- 0.0 1.0----30.16- 78.4 71.6 70.3---
2024-06-18 11:36 pm E 1.9 4.1----30.16- 79.0 71.4 70.5---
2024-06-18 11:30 pmESE 1.9 2.9----30.16- 77.9 71.4 70.3---
2024-06-18 11:24 pm E 1.0 1.9----30.16- 77.0 71.4 70.3---
2024-06-18 11:18 pmENE 1.0 1.9----30.15- 76.3 71.6 70.3---
2024-06-18 11:12 pmENE 1.9 2.9----30.15- 75.0 71.6 70.2---
2024-06-18 11:06 pmENE 1.9 2.9----30.16- 73.4 71.6 69.8---
2024-06-18 11:00 pm- 0.0 2.9----30.16+0.01 73.0 71.8 69.6---
2024-06-18 10:54 pm W 2.9 6.0----30.16- 72.7 71.8 69.4---
2024-06-18 10:48 pm W 6.0 6.0----30.16- 72.5 72.0 69.4---
2024-06-18 10:42 pm NW 1.9 1.9----30.15- 73.9 72.3 69.8---
2024-06-18 10:36 pm- 0.0 0.0----30.15- 75.0 72.5 69.6---
2024-06-18 10:30 pm- 0.0 1.0----30.16- 75.6 72.5 70.0---
2024-06-18 10:24 pm- 0.0 1.9----30.15- 75.4 72.5 70.2---
2024-06-18 10:18 pm- 0.0 1.9----30.16- 74.5 72.5 69.8---
2024-06-18 10:12 pm- 0.0 2.9----30.16- 74.3 72.1 70.0---
2024-06-18 10:06 pmESE 2.9 2.9----30.16- 74.1 72.0 69.6---
2024-06-18 10:00 pm SE 1.9 4.1----30.17+0.03 73.9 72.0 69.8---
2024-06-18 09:54 pmESE 2.9 4.1----30.17- 73.8 72.1 69.4---
2024-06-18 09:48 pmSSE 1.9 4.1----30.16- 73.4 72.7 69.1---
2024-06-18 09:42 pmSSE 2.9 2.9----30.16- 73.6 72.7 69.3---
2024-06-18 09:36 pm SE 1.9 1.9----30.15- 73.4 72.9 69.1---
2024-06-18 09:30 pm- 0.0 1.0----30.15- 73.0 72.7 68.7---
2024-06-18 09:24 pm- 0.0 1.0----30.15- 73.2 72.3 68.5---
2024-06-18 09:18 pm- 0.0 1.0----30.14- 73.4 71.6 68.7---
2024-06-18 09:12 pm SE 1.0 1.9----30.14- 73.2 71.6 68.7---
2024-06-18 09:06 pm SE 1.9 1.9----30.14- 73.2 71.6 69.1---
2024-06-18 09:00 pmSSE 1.9 1.9----30.14+0.03 73.0 71.6 68.9---
2024-06-18 08:54 pm SE 1.0 2.9----30.15- 73.0 71.6 69.1---
2024-06-18 08:48 pmSSE 1.9 2.9----30.15- 72.9 71.8 68.9---
2024-06-18 08:42 pm S 1.9 4.1----30.15- 72.9 72.3 69.1---
2024-06-18 08:36 pm S 2.9 4.1----30.15- 72.9 72.5 68.9---
2024-06-18 08:30 pm S 2.9 5.1----30.15- 72.9 72.1 69.1---
2024-06-18 08:24 pm SW 2.9 5.1----30.15- 73.0 72.0 69.3---
2024-06-18 08:18 pm SW 2.9 4.1----30.15- 73.2 71.6 69.3---
2024-06-18 08:12 pmSSW 1.9 4.1----30.14- 73.2 71.6 69.6---
2024-06-18 08:06 pm S 2.9 5.1----30.15- 73.4 71.4 69.8---
2024-06-18 08:00 pm S 2.9 5.1----30.15+0.03 73.2 71.2 69.8---
2024-06-18 07:54 pm S 5.1 8.0----30.15- 73.4 71.2 70.0---
2024-06-18 07:48 pmSSW 8.0 11.1----30.15- 73.6 71.4 70.2---
2024-06-18 07:42 pm S 9.9 11.1----30.15- 73.8 71.6 70.3---
2024-06-18 07:36 pm S 7.0 8.0----30.15- 74.1 71.8 70.5---
2024-06-18 07:30 pm S 7.0 8.9----30.15- 74.3 71.8 70.5---
2024-06-18 07:24 pm S 6.0 8.9----30.14- 74.7 71.6 70.7---
2024-06-18 07:18 pmSSW 7.0 8.9----30.14- 75.0 71.6 70.5---
2024-06-18 07:12 pmSSW 5.1 9.9----30.14- 75.2 71.4 70.5---
2024-06-18 07:06 pm SW 9.9 12.0----30.14- 75.4 71.4 70.5---
2024-06-18 07:00 pm SW 12.0 18.1----30.14+0.01 75.9 71.8 70.3---
2024-06-18 06:54 pm SW 15.9 19.0----30.14- 76.6 72.0 70.2---
2024-06-18 06:48 pm S 7.0 8.0----30.13- 75.4 72.0 70.2---
2024-06-18 06:42 pmSSE 6.0 7.0----30.12- 75.9 71.8 70.3---
2024-06-18 06:36 pmSSE 5.1 6.0----30.12- 75.6 71.4 70.5---
2024-06-18 06:30 pm S 5.1 7.0----30.12- 75.9 71.4 70.5---
2024-06-18 06:24 pmSSE 5.1 7.0----30.12- 76.6 71.6 70.5---
2024-06-18 06:18 pmSSE 5.1 7.0----30.12- 76.8 71.8 70.5---
2024-06-18 06:12 pmSSE 5.1 8.0----30.12- 76.8 72.3 70.9---
2024-06-18 06:06 pmSSE 5.1 7.0----30.11- 77.5 71.6 70.9---
2024-06-18 06:00 pmSSE 5.1 7.0----30.11-0.01 77.5 71.4 70.5---
2024-06-18 05:54 pmSSE 5.1 6.0----30.11- 77.9 71.6 70.7---
2024-06-18 05:48 pmSSE 5.1 7.0----30.11- 78.3 71.8 70.9---
2024-06-18 05:42 pm SE 5.1 6.0----30.11- 78.8 72.0 71.4---
2024-06-18 05:36 pm SE 5.1 7.0----30.11- 79.5 72.0 71.4---
2024-06-18 05:30 pm S 4.1 6.0----30.12- 80.6 72.0 70.5---
2024-06-18 05:24 pmSSW 2.9 4.1----30.12- 81.9 72.0 70.3---
2024-06-18 05:18 pm SW 2.9 6.0----30.12- 81.9 72.3 70.9---
2024-06-18 05:12 pmWSW 5.1 6.0----30.12- 83.7 72.5 70.3---
2024-06-18 05:06 pm W 6.0 6.0----30.12- 84.2 72.5 70.2---
2024-06-18 05:00 pm W 6.0 7.0----30.11-0.03 84.2 72.3 70.2---
2024-06-18 04:54 pm W 7.0 7.0----30.11- 84.9 72.0 69.8---
2024-06-18 04:48 pm W 7.0 7.0----30.11- 84.4 72.0 70.0---
2024-06-18 04:42 pm W 7.0 7.0----30.12- 83.5 72.0 70.7---
2024-06-18 04:36 pm W 5.1 6.0----30.12- 83.3 72.1 70.7---
2024-06-18 04:30 pm W 5.1 6.0----30.12- 82.8 72.1 70.5---
2024-06-18 04:24 pm W 6.0 8.0----30.12- 83.3 72.1 70.5---
2024-06-18 04:18 pm W 8.0 8.9----30.12- 81.9 71.4 70.3---
2024-06-18 04:12 pm W 8.9 8.9----30.12- 81.3 71.4 70.2---
2024-06-18 04:06 pm W 8.9 9.9----30.12- 81.1 71.4 69.8---
2024-06-18 04:00 pm W 8.9 8.9----30.12-0.03 80.4 71.6 69.6---
2024-06-18 03:54 pm W 8.0 8.9----30.12- 80.2 72.0 69.4---
2024-06-18 03:48 pm W 8.9 9.9----30.12- 80.1 72.0 69.4---
2024-06-18 03:42 pm W 8.9 8.9----30.12- 80.4 72.1 69.3---
2024-06-18 03:36 pmWSW 8.0 8.9----30.11- 80.1 72.1 69.3---
2024-06-18 03:30 pm W 7.0 8.9----30.11- 80.2 72.5 69.1---
2024-06-18 03:24 pmWSW 8.9 9.9----30.12- 80.4 72.5 68.9---
2024-06-18 03:18 pm W 8.9 8.9----30.12- 80.4 72.5 68.9---
2024-06-18 03:12 pmWSW 8.9 8.9----30.12- 80.4 72.0 69.1---
2024-06-18 03:06 pmWSW 8.0 8.0----30.12- 80.1 71.6 69.1---
2024-06-18 03:00 pmWSW 8.0 8.9----30.12-0.03 79.5 71.6 69.1---
2024-06-18 02:54 pmWSW 8.0 9.9----30.13- 79.0 71.4 69.3---